Time,TemperatureF,DewpointF,PressureIn,WindDirection,WindDirectionDegrees,WindSpeedMPH,WindSpeedGustMPH,Humidity,HourlyPrecipIn,Conditions,Clouds,dailyrainin,SoftwareType,DateUTC
2011-05-18 00:03:00,57.6,21.6,29.68,WSW,247,1.6,1.6,25,0.00,,,0.00,open2300-1.11,2011-05-18 06:03:00,
2011-05-18 00:13:00,57.4,21.4,29.68,SSW,202,6.9,8.5,25,0.00,,,0.00,open2300-1.11,2011-05-18 06:13:00,
2011-05-18 00:23:00,57.4,22.4,29.67,SW,225,4.7,6.9,26,0.00,,,0.00,open2300-1.11,2011-05-18 06:23:00,
2011-05-18 00:33:00,57.0,22.1,29.67,West,270,5.4,5.4,26,0.00,,,0.00,open2300-1.11,2011-05-18 06:33:00,
2011-05-18 00:43:00,57.0,22.1,29.67,WSW,247,0.0,7.4,26,0.00,,,0.00,open2300-1.11,2011-05-18 06:43:00,
2011-05-18 00:53:00,56.8,22.9,29.67,SW,225,0.0,2.2,27,0.00,,,0.00,open2300-1.11,2011-05-18 06:53:00,
2011-05-18 01:03:00,56.5,22.6,29.67,WSW,247,5.4,7.6,27,0.00,,,0.00,open2300-1.11,2011-05-18 07:03:00,
2011-05-18 01:13:00,56.1,22.2,29.67,WSW,247,5.6,5.6,27,0.00,,,0.00,open2300-1.11,2011-05-18 07:13:00,
2011-05-18 01:23:00,55.9,23.0,29.66,WSW,247,0.0,5.6,28,0.00,,,0.00,open2300-1.11,2011-05-18 07:23:00,
2011-05-18 01:33:00,55.6,23.6,29.66,SW,225,0.0,2.5,29,0.00,,,0.00,open2300-1.11,2011-05-18 07:33:00,
2011-05-18 01:43:00,55.4,23.5,29.66,WSW,247,0.0,1.1,29,0.00,,,0.00,open2300-1.11,2011-05-18 07:43:00,
2011-05-18 02:23:00,54.9,24.7,29.64,WSW,247,4.2,4.5,31,0.00,,,0.00,open2300-1.11,2011-05-18 08:23:00,
2011-05-18 02:33:00,54.7,25.2,29.64,West,270,5.4,5.4,32,0.00,,,0.00,open2300-1.11,2011-05-18 08:33:00,
2011-05-18 02:43:00,54.5,25.8,29.64,WSW,247,0.0,5.4,33,0.00,,,0.00,open2300-1.11,2011-05-18 08:43:00,
2011-05-18 02:53:00,54.3,25.6,29.63,SW,225,1.1,1.1,33,0.00,,,0.00,open2300-1.11,2011-05-18 08:53:00,
2011-05-18 03:03:00,54.5,25.1,29.63,NNW,337,0.0,6.0,32,0.00,,,0.00,open2300-1.11,2011-05-18 09:03:00,
2011-05-18 03:13:00,54.5,25.8,29.63,WNW,292,0.0,0.0,33,0.00,,,0.00,open2300-1.11,2011-05-18 09:13:00,
2011-05-18 03:23:00,54.3,25.6,29.63,NW,315,0.0,4.0,33,0.00,,,0.00,open2300-1.11,2011-05-18 09:23:00,
2011-05-18 03:33:00,54.3,26.3,29.63,SSE,157,3.8,3.8,34,0.00,,,0.00,open2300-1.11,2011-05-18 09:33:00,
2011-05-18 03:43:00,54.1,26.2,29.63,West,270,0.0,3.8,34,0.00,,,0.00,open2300-1.11,2011-05-18 09:43:00,
2011-05-18 03:53:00,54.0,26.0,29.63,West,270,0.0,0.0,34,0.00,,,0.00,open2300-1.11,2011-05-18 09:53:00,
2011-05-18 04:03:00,54.0,26.7,29.63,WNW,292,0.0,0.0,35,0.00,,,0.00,open2300-1.11,2011-05-18 10:03:00,
2011-05-18 04:13:00,53.8,26.6,29.63,ESE,112,1.3,1.3,35,0.00,,,0.00,open2300-1.11,2011-05-18 10:13:00,
2011-05-18 04:23:00,53.8,26.6,29.62,NE,45,0.0,1.3,35,0.00,,,0.00,open2300-1.11,2011-05-18 10:23:00,
2011-05-18 04:33:00,53.6,26.4,29.62,East,90,0.0,0.4,35,0.00,,,0.00,open2300-1.11,2011-05-18 10:33:00,
2011-05-18 04:43:00,53.4,26.9,29.62,NNE,22,0.0,0.0,36,0.00,,,0.00,open2300-1.11,2011-05-18 10:43:00,
2011-05-18 04:53:00,53.4,27.6,29.62,NE,45,0.0,0.0,37,0.00,,,0.00,open2300-1.11,2011-05-18 10:53:00,
2011-05-18 05:03:00,53.4,27.6,29.61,NE,45,0.0,0.0,37,0.00,,,0.00,open2300-1.11,2011-05-18 11:03:00,
2011-05-18 05:13:00,53.4,27.6,29.61,NE,45,0.0,0.0,37,0.00,,,0.00,open2300-1.11,2011-05-18 11:13:00,
2011-05-18 05:23:00,53.2,28.1,29.61,NNE,22,0.0,2.0,38,0.00,,,0.00,open2300-1.11,2011-05-18 11:23:00,
2011-05-18 05:33:00,53.2,28.8,29.61,NE,45,0.0,0.0,39,0.00,,,0.00,open2300-1.11,2011-05-18 11:33:00,
2011-05-18 05:43:00,53.2,29.5,29.61,ENE,67,0.0,0.0,40,0.00,,,0.00,open2300-1.11,2011-05-18 11:43:00,
2011-05-18 05:53:00,53.1,28.7,29.60,ENE,67,0.0,0.0,39,0.00,,,0.00,open2300-1.11,2011-05-18 11:53:00,
2011-05-18 06:03:00,53.2,28.8,29.60,NE,45,0.0,0.0,39,0.00,,,0.00,open2300-1.11,2011-05-18 12:03:00,
2011-05-18 06:13:00,53.1,29.4,29.60,ENE,67,0.0,0.7,40,0.00,,,0.00,open2300-1.11,2011-05-18 12:13:00,
2011-05-18 06:23:00,52.9,29.8,29.59,NNE,22,0.0,0.2,41,0.00,,,0.00,open2300-1.11,2011-05-18 12:23:00,
2011-05-18 06:33:00,52.9,29.8,29.61,ESE,112,0.0,0.0,41,0.00,,,0.00,open2300-1.11,2011-05-18 12:33:00,
2011-05-18 06:43:00,52.7,31.3,29.60,South,180,0.0,4.9,44,0.00,,,0.00,open2300-1.11,2011-05-18 12:43:00,
2011-05-18 06:53:00,52.5,31.7,29.60,South,180,0.0,6.3,45,0.00,,,0.00,open2300-1.11,2011-05-18 12:53:00,
2011-05-18 07:03:00,52.3,32.0,29.61,South,180,0.9,1.1,46,0.00,,,0.00,open2300-1.11,2011-05-18 13:03:00,
2011-05-18 07:13:00,52.2,32.5,29.62,SW,225,0.0,4.7,47,0.00,,,0.00,open2300-1.11,2011-05-18 13:13:00,
2011-05-18 07:23:00,51.8,32.7,29.61,SE,135,0.0,0.0,48,0.00,,,0.00,open2300-1.11,2011-05-18 13:23:00,
2011-05-18 07:33:00,51.8,32.7,29.61,SE,135,0.0,4.2,48,0.00,,,0.00,open2300-1.11,2011-05-18 13:33:00,
2011-05-18 07:43:00,52.0,32.8,29.61,SSW,202,0.0,0.0,48,0.00,,,0.00,open2300-1.11,2011-05-18 13:43:00,
2011-05-18 07:53:00,52.2,33.0,29.61,SW,225,0.0,2.0,48,0.00,,,0.00,open2300-1.11,2011-05-18 13:53:00,
2011-05-18 08:03:00,52.3,33.7,29.61,ENE,67,1.1,5.1,49,0.00,,,0.00,open2300-1.11,2011-05-18 14:03:00,
2011-05-18 08:13:00,52.0,34.9,29.62,SE,135,0.0,1.1,52,0.00,,,0.00,open2300-1.11,2011-05-18 14:13:00,
2011-05-18 08:23:00,50.9,35.7,29.62,SE,135,0.0,1.8,56,0.00,,,0.00,open2300-1.11,2011-05-18 14:23:00,
2011-05-18 08:33:00,50.7,35.5,29.62,East,90,0.0,0.0,56,0.00,,,0.00,open2300-1.11,2011-05-18 14:33:00,
2011-05-18 08:43:00,50.5,36.3,29.62,NNE,22,0.0,0.0,58,0.02,,,0.02,open2300-1.11,2011-05-18 14:43:00,
2011-05-18 08:53:00,50.5,37.2,29.62,NNE,22,0.0,0.0,60,0.02,,,0.02,open2300-1.11,2011-05-18 14:53:00,
2011-05-18 09:03:00,50.5,37.6,29.61,East,90,3.6,3.6,61,0.02,,,0.02,open2300-1.11,2011-05-18 15:03:00,
2011-05-18 09:13:00,50.2,38.4,29.60,ESE,112,0.9,4.5,64,0.02,,,0.02,open2300-1.11,2011-05-18 15:13:00,
2011-05-18 09:23:00,49.8,38.1,29.59,SSE,157,0.0,5.8,64,0.02,,,0.02,open2300-1.11,2011-05-18 15:23:00,
2011-05-18 09:33:00,50.0,38.7,29.59,SSE,157,4.5,4.5,65,0.02,,,0.02,open2300-1.11,2011-05-18 15:33:00,
2011-05-18 09:43:00,50.4,39.0,29.59,South,180,1.3,4.5,65,0.00,,,0.02,open2300-1.11,2011-05-18 15:43:00,
2011-05-18 09:53:00,51.4,40.8,29.58,ESE,112,0.0,4.5,67,0.00,,,0.02,open2300-1.11,2011-05-18 15:53:00,
2011-05-18 10:03:00,52.0,41.0,29.58,SSW,202,7.2,7.2,66,0.00,,,0.02,open2300-1.11,2011-05-18 16:03:00,
2011-05-18 10:13:00,51.8,39.1,29.58,SSE,157,0.2,7.2,62,0.00,,,0.02,open2300-1.11,2011-05-18 16:13:00,
2011-05-18 10:23:00,51.3,39.0,29.58,SSE,157,0.7,5.1,63,0.00,,,0.02,open2300-1.11,2011-05-18 16:23:00,
2011-05-18 10:33:00,50.9,39.1,29.58,SE,135,2.7,7.2,64,0.00,,,0.02,open2300-1.11,2011-05-18 16:33:00,
2011-05-18 10:43:00,50.5,39.6,29.58,ESE,112,0.0,2.7,66,0.00,,,0.02,open2300-1.11,2011-05-18 16:43:00,
2011-05-18 10:53:00,49.8,39.3,29.58,East,90,0.0,0.9,67,0.02,,,0.04,open2300-1.11,2011-05-18 16:53:00,
2011-05-18 11:03:00,49.6,38.7,29.58,East,90,0.0,0.9,66,0.02,,,0.04,open2300-1.11,2011-05-18 17:03:00,
2011-05-18 11:13:00,49.1,39.0,29.58,East,90,0.9,3.1,68,0.04,,,0.06,open2300-1.11,2011-05-18 17:13:00,
2011-05-18 11:23:00,49.1,40.1,29.57,ESE,112,4.2,4.2,71,0.04,,,0.06,open2300-1.11,2011-05-18 17:23:00,
2011-05-18 11:33:00,49.1,40.1,29.56,SSE,157,0.9,5.8,71,0.04,,,0.06,open2300-1.11,2011-05-18 17:33:00,
2011-05-18 11:43:00,49.3,40.3,29.56,East,90,7.2,7.2,71,0.04,,,0.06,open2300-1.11,2011-05-18 17:43:00,
2011-05-18 11:53:00,49.3,40.3,29.55,ENE,67,3.1,7.2,71,0.02,,,0.06,open2300-1.11,2011-05-18 17:53:00,
2011-05-18 12:03:00,49.3,40.3,29.55,NE,45,0.7,3.1,71,0.02,,,0.06,open2300-1.11,2011-05-18 18:03:00,
2011-05-18 12:13:00,49.3,40.3,29.57,East,90,0.0,3.1,71,0.00,,,0.06,open2300-1.11,2011-05-18 18:13:00,
2011-05-18 12:23:00,49.6,40.6,29.56,NE,45,0.0,5.6,71,0.02,,,0.08,open2300-1.11,2011-05-18 18:23:00,
2011-05-18 12:33:00,49.8,40.8,29.57,NE,45,0.0,0.0,71,0.02,,,0.08,open2300-1.11,2011-05-18 18:33:00,
2011-05-18 12:43:00,49.8,41.1,29.56,East,90,4.7,4.7,72,0.02,,,0.08,open2300-1.11,2011-05-18 18:43:00,
2011-05-18 12:53:00,49.3,40.6,29.56,ESE,112,0.0,4.7,72,0.02,,,0.08,open2300-1.11,2011-05-18 18:53:00,
2011-05-18 13:03:00,49.1,40.8,29.56,ESE,112,0.0,1.6,73,0.04,,,0.10,open2300-1.11,2011-05-18 19:03:00,
2011-05-18 13:13:00,48.7,40.1,29.56,East,90,0.0,0.0,72,0.04,,,0.10,open2300-1.11,2011-05-18 19:13:00,
2011-05-18 13:23:00,48.7,40.4,29.56,SSE,157,0.0,0.0,73,0.04,,,0.12,open2300-1.11,2011-05-18 19:23:00,
2011-05-18 13:33:00,48.2,39.9,29.56,WNW,292,0.0,0.0,73,0.04,,,0.12,open2300-1.11,2011-05-18 19:33:00,
2011-05-18 13:43:00,48.2,40.2,29.56,WNW,292,0.0,0.0,74,0.06,,,0.14,open2300-1.11,2011-05-18 19:43:00,
2011-05-18 13:53:00,48.4,40.7,29.56,NNW,337,0.0,0.0,75,0.04,,,0.14,open2300-1.11,2011-05-18 19:53:00,
2011-05-18 14:03:00,48.4,40.7,29.56,NNE,22,0.0,0.0,75,0.06,,,0.16,open2300-1.11,2011-05-18 20:03:00,
2011-05-18 14:13:00,48.4,41.1,29.56,NNE,22,0.0,0.0,76,0.08,,,0.18,open2300-1.11,2011-05-18 20:13:00,
2011-05-18 14:23:00,48.0,40.7,29.56,East,90,6.0,8.1,76,0.08,,,0.20,open2300-1.11,2011-05-18 20:23:00,
2011-05-18 14:33:00,47.5,40.2,29.55,ENE,67,1.3,6.0,76,0.08,,,0.20,open2300-1.11,2011-05-18 20:33:00,
2011-05-18 14:43:00,47.5,40.6,29.55,ENE,67,3.4,5.1,77,0.08,,,0.22,open2300-1.11,2011-05-18 20:43:00,
2011-05-18 14:53:00,47.5,40.6,29.56,ENE,67,3.1,3.8,77,0.06,,,0.22,open2300-1.11,2011-05-18 20:53:00,
2011-05-18 15:03:00,47.5,40.6,29.55,ENE,67,2.0,4.0,77,0.06,,,0.22,open2300-1.11,2011-05-18 21:03:00,
2011-05-18 15:13:00,47.1,40.3,29.55,NE,45,0.0,6.5,77,0.08,,,0.26,open2300-1.11,2011-05-18 21:13:00,
2011-05-18 15:23:00,47.3,40.4,29.57,NW,315,4.5,4.5,77,0.06,,,0.26,open2300-1.11,2011-05-18 21:23:00,
2011-05-18 15:33:00,46.9,40.4,29.57,WNW,292,0.0,4.5,78,0.08,,,0.29,open2300-1.11,2011-05-18 21:33:00,
2011-05-18 15:43:00,46.8,40.3,29.57,North,0,0.0,0.0,78,0.08,,,0.31,open2300-1.11,2011-05-18 21:43:00,
2011-05-18 15:53:00,46.9,40.8,29.57,North,0,0.0,0.0,79,0.08,,,0.31,open2300-1.11,2011-05-18 21:53:00,
2011-05-18 16:03:00,47.1,41.0,29.57,North,0,1.6,1.6,79,0.06,,,0.31,open2300-1.11,2011-05-18 22:03:00,
2011-05-18 16:13:00,47.1,41.0,29.58,WNW,292,0.0,1.6,79,0.04,,,0.31,open2300-1.11,2011-05-18 22:13:00,
2011-05-18 16:23:00,46.8,40.6,29.59,WNW,292,1.8,1.8,79,0.06,,,0.33,open2300-1.11,2011-05-18 22:23:00,
2011-05-18 16:33:00,46.0,39.6,29.60,West,270,2.9,8.7,78,0.06,,,0.35,open2300-1.11,2011-05-18 22:33:00,
2011-05-18 16:43:00,45.3,38.9,29.61,SW,225,2.9,6.3,78,0.04,,,0.35,open2300-1.11,2011-05-18 22:43:00,
2011-05-18 16:53:00,44.6,38.2,29.62,WSW,247,8.1,8.1,78,0.06,,,0.37,open2300-1.11,2011-05-18 22:53:00,
2011-05-18 17:03:00,43.9,37.4,29.62,WSW,247,1.3,8.1,78,0.06,,,0.37,open2300-1.11,2011-05-18 23:03:00,
2011-05-18 17:13:00,43.5,37.4,29.61,NW,315,0.0,1.3,79,0.08,,,0.39,open2300-1.11,2011-05-18 23:13:00,
2011-05-18 17:23:00,44.2,38.5,29.59,WSW,247,0.0,0.0,80,0.06,,,0.39,open2300-1.11,2011-05-18 23:23:00,
2011-05-18 17:33:00,44.8,39.0,29.58,SE,135,0.0,2.2,80,0.04,,,0.39,open2300-1.11,2011-05-18 23:33:00,
2011-05-18 17:43:00,44.6,38.5,29.57,SSE,157,0.0,0.0,79,0.04,,,0.39,open2300-1.11,2011-05-18 23:43:00,
2011-05-18 17:53:00,45.0,38.9,29.57,ESE,112,0.0,0.0,79,0.02,,,0.39,open2300-1.11,2011-05-18 23:53:00,
2011-05-18 18:03:00,45.3,38.9,29.58,ESE,112,0.0,1.1,78,0.00,,,0.39,open2300-1.11,2011-05-19 00:03:00,
2011-05-18 18:13:00,45.7,39.2,29.58,ESE,112,0.0,0.0,78,0.00,,,0.39,open2300-1.11,2011-05-19 00:13:00,
2011-05-18 18:23:00,45.7,39.2,29.59,East,90,0.0,2.0,78,0.00,,,0.39,open2300-1.11,2011-05-19 00:23:00,
2011-05-18 18:33:00,45.9,39.4,29.60,ENE,67,3.4,3.4,78,0.00,,,0.39,open2300-1.11,2011-05-19 00:33:00,
2011-05-18 18:43:00,45.9,39.4,29.60,ENE,67,5.1,5.1,78,0.00,,,0.39,open2300-1.11,2011-05-19 00:43:00,
2011-05-18 18:53:00,45.7,39.2,29.60,ENE,67,5.1,6.5,78,0.00,,,0.39,open2300-1.11,2011-05-19 00:53:00,
2011-05-18 19:03:00,45.3,38.5,29.60,East,90,6.9,6.9,77,0.00,,,0.39,open2300-1.11,2011-05-19 01:03:00,
2011-05-18 19:13:00,45.1,38.3,29.60,East,90,7.6,7.6,77,0.00,,,0.39,open2300-1.11,2011-05-19 01:13:00,
2011-05-18 19:23:00,45.1,38.7,29.60,East,90,0.0,7.6,78,0.00,,,0.39,open2300-1.11,2011-05-19 01:23:00,
2011-05-18 19:33:00,45.1,38.3,29.60,SE,135,0.0,0.0,77,0.00,,,0.39,open2300-1.11,2011-05-19 01:33:00,
2011-05-18 19:43:00,45.0,38.2,29.60,SSE,157,0.0,0.0,77,0.00,,,0.39,open2300-1.11,2011-05-19 01:43:00,
2011-05-18 19:53:00,45.0,38.2,29.60,East,90,0.0,0.0,77,0.00,,,0.39,open2300-1.11,2011-05-19 01:53:00,
2011-05-18 20:03:00,44.8,38.0,29.61,East,90,0.0,3.6,77,0.00,,,0.39,open2300-1.11,2011-05-19 02:03:00,
2011-05-18 20:13:00,44.8,38.3,29.61,ENE,67,2.0,4.9,78,0.00,,,0.39,open2300-1.11,2011-05-19 02:13:00,
2011-05-18 20:23:00,44.4,38.0,29.61,East,90,3.4,6.0,78,0.00,,,0.39,open2300-1.11,2011-05-19 02:23:00,
2011-05-18 20:33:00,44.4,38.3,29.60,ENE,67,5.6,6.3,79,0.00,,,0.39,open2300-1.11,2011-05-19 02:33:00,
2011-05-18 20:43:00,44.4,38.0,29.60,East,90,0.0,6.9,78,0.00,,,0.39,open2300-1.11,2011-05-19 02:43:00,
2011-05-18 20:53:00,44.4,38.0,29.61,East,90,2.2,2.2,78,0.00,,,0.39,open2300-1.11,2011-05-19 02:53:00,
2011-05-18 21:03:00,44.4,38.3,29.61,East,90,0.0,6.0,79,0.00,,,0.39,open2300-1.11,2011-05-19 03:03:00,
2011-05-18 21:13:00,44.4,38.3,29.61,NE,45,0.0,3.1,79,0.00,,,0.39,open2300-1.11,2011-05-19 03:13:00,
2011-05-18 21:23:00,44.4,38.3,29.61,ENE,67,0.0,3.1,79,0.00,,,0.39,open2300-1.11,2011-05-19 03:23:00,
2011-05-18 21:33:00,44.4,38.3,29.61,ENE,67,0.0,4.7,79,0.00,,,0.39,open2300-1.11,2011-05-19 03:33:00,
2011-05-18 21:43:00,44.4,38.3,29.61,NE,45,0.0,2.5,79,0.00,,,0.39,open2300-1.11,2011-05-19 03:43:00,
2011-05-18 21:53:00,44.4,38.3,29.62,East,90,0.0,2.0,79,0.00,,,0.39,open2300-1.11,2011-05-19 03:53:00,
2011-05-18 22:03:00,44.6,38.5,29.62,ENE,67,0.0,0.4,79,0.00,,,0.39,open2300-1.11,2011-05-19 04:03:00,
2011-05-18 22:13:00,44.6,38.2,29.62,ENE,67,0.0,1.1,78,0.00,,,0.39,open2300-1.11,2011-05-19 04:13:00,
2011-05-18 22:23:00,44.4,38.0,29.62,ENE,67,0.0,0.0,78,0.00,,,0.39,open2300-1.11,2011-05-19 04:23:00,
2011-05-18 22:33:00,44.4,38.0,29.62,ENE,67,0.0,0.0,78,0.00,,,0.39,open2300-1.11,2011-05-19 04:33:00,
2011-05-18 22:43:00,44.6,38.2,29.63,ENE,67,0.0,0.0,78,0.00,,,0.39,open2300-1.11,2011-05-19 04:43:00,
2011-05-18 22:53:00,44.6,38.5,29.62,ENE,67,0.0,0.0,79,0.00,,,0.39,open2300-1.11,2011-05-19 04:53:00,
2011-05-18 23:03:00,44.8,38.7,29.63,ENE,67,0.0,0.0,79,0.00,,,0.39,open2300-1.11,2011-05-19 05:03:00,
2011-05-18 23:13:00,44.8,38.7,29.63,ENE,67,0.0,0.0,79,0.00,,,0.39,open2300-1.11,2011-05-19 05:13:00,
2011-05-18 23:23:00,44.8,38.7,29.63,ENE,67,0.0,0.0,79,0.00,,,0.39,open2300-1.11,2011-05-19 05:23:00,
2011-05-18 23:33:00,44.8,38.7,29.63,ENE,67,2.0,2.0,79,0.00,,,0.39,open2300-1.11,2011-05-19 05:33:00,
2011-05-18 23:43:00,44.8,38.0,29.63,ENE,67,0.0,1.3,77,0.00,,,0.39,open2300-1.11,2011-05-19 05:43:00,
2011-05-18 23:53:00,44.8,37.7,29.63,East,90,0.7,4.9,76,0.00,,,0.39,open2300-1.11,2011-05-19 05:53:00,